www.pogodaiklimat.ru

Погода и климат >> Архив погоды >> Индонезия >> Ранаи


ПОГОДА в Ранаи

  • Прогноз погоды в Ранаи
  • Монитор погоды в Ранаи

АРХИВ ПОГОДЫ в Ранаи

Время (UTC), дата Ветер
(напр.,м/с)
 
Видим.   Явления Облачность Т
(С)
Тd
(С)
f
(%)
Тe
(С)
Тes
(С)
Комфортность P
(гПа)
Po
(гПа)
Тmin
(С)
Tmax
(С)
R
(мм)
R24
(мм)
S
(см)
00 14.06 Ю 3 6000 м мгла 6/5 420 м
[Sc Ac trans Ci fib]
+25.4 +23.2 88 +34 +35 очень
душно
1010.7 1010.5 +23.4 16
03 14.06 Ю 3 6000 м осадки на расстоянии 8/5 420 м
[Sc Ac trans Ci fib]
+29.4 +23.5 71 +40 +45 очень
душно
1011.7 1011.5
06 14.06 ЮЗ 4 7000 м осадки на расстоянии 8/5 420 м
[Sc Ac trans Ci fib]
+30.2 +25.2 75 +44 +48 опасность
перегрева
1010.8 1010.6
09 14.06 штиль 0 50 км слаб. дождь ?/? +26.6 +24.0 86 +37 +37 очень
душно
1007.4 1007.2 0.0
12 14.06 штиль 0 50 км слаб. дождь ?/? +27.6 +25.0 86 +40 +40 очень
душно
1007.6 1007.4 +29.6 6
03 15.06 штиль 0 50 км ?/? +30.0 +25.0 75 +43 +43 опасность
перегрева
1010.6 1010.4
06 15.06 ЮЗ 4 8000 м 6/5 420 м
[Sc Ac trans Ci fib]
+30.0 +25.1 75 +43 +49 опасность
перегрева
1009.0 1008.8
09 15.06 З 4 7000 м 8/6 420 м
[Sc diur, vesp Ac trans Ci fib]
+29.0 +25.0 79 +42 +43 опасность
перегрева
1008.3 1008.1
00 16.06 ЮЗ 1 6000 м 9/5 480 м
[Sc Ac trans Ci sp]
+26.4 +25.8 97 +39 +40 очень
душно
1009.7 1009.6 +23.8
03 16.06 ЮЗ 2 7000 м 9/4 450 м
[Sc Ac trans Ci fib]
+29.2 +27.6 91 +47 +53 опасность
перегрева
1011.1 1010.9
06 16.06 Ю 5 8000 м 9/5 420 м
[Cu med, cong Ac trans Ci fib]
+31.4 +27.5 80 +50 +53 опасность
перегрева
1009.5 1009.3
09 16.06 ЮЗ 2 8000 м 9/5 420 м
[Cu Sc Ac trans Ci fib]
+30.2 +27.2 84 +48 +49 опасность
перегрева
1008.2 1008.0
12 16.06 ЮЗ 2 6000 м 8/5 450 м
[Sc Ac trans Ci fib]
+28.2 +26.4 90 +43 +43 опасность
перегрева
1008.5 1008.3 +31.6 100
00 17.06 ЮЗ 3 6000 м осадки на расстоянии 6/5 420 м
[Sc diur, vesp Ac trans Ci fib]
+26.0 +24.5 91 +36 +37 очень
душно
1010.8 1010.6 +23.6
03 17.06 ЮЗ 3 7000 м 6/5 420 м
[Sc Ac trans Ci fib]
+28.0 +25.2 85 +41 +47 опасность
перегрева
1011.1 1010.9
06 17.06 З 4 1000 м слаб. дождь 10/6 420 м
[Sc diur, vesp As op]
+25.2 +24.0 93 +35 +36 очень
душно
1011.0 1010.7 0.0
09 17.06 З 3 6000 м осадки на расстоянии 9/6 420 м
[Sc Ac trans Ci fib]
+26.6 +24.3 87 +37 +38 очень
душно
1009.5 1009.3 31
12 17.06 ЮЗ 3 6000 м осадки на расстоянии 9/6 420 м
[Sc Ac trans Ci fib]
+27.0 +25.0 89 +39 +39 очень
душно
1009.6 1009.4 +32.0 31
00 18.06 ЮЗ 2 7000 м 5/5 450 м
[Sc Ac trans Ci fib]
+26.6 +24.6 89 +38 +39 очень
душно
1010.7 1010.5 +24.4 31
03 18.06 З 3 6000 м осадки на расстоянии 6/5 420 м
[Sc Ac trans Ci fib]
+29.4 +24.8 76 +42 +48 опасность
перегрева
1010.9 1010.7
06 18.06 штиль 0 7000 м 6/5 450 м
[Sc Ac trans Ci fib]
+30.4 +24.7 72 +43 +54 опасность
перегрева
1010.8 1010.6
09 18.06 З 3 6000 м осадки на расстоянии 6/5 420 м
[Sc Ac trans Ci fib]
+29.4 +24.8 76 +42 +43 опасность
перегрева
1010.9 1010.7
12 18.06 В 3 6000 м осадки на расстоянии 8/6 420 м
[Sc diur, vesp Ac trans Ci fib]
+27.0 +25.0 89 +39 +39 очень
душно
1009.8 1009.6 +30.0 1
00 19.06 З 4 6000 м слаб. дождь 9/6 420 м
[Sc diur, vesp As op Ci fib]
+25.4 +24.7 96 +36 +36 очень
душно
1011.0 1010.8 +23.0 4
03 19.06 З 3 6000 м в посл. час переохл. осадки (гололёд) 8/6 420 м
[Sc As op Ci fib]
+27.2 +24.4 85 +38 +42 очень
душно
1011.3 1011.1 2
06 19.06 ЮЗ 3 7000 м 6/5 420 м
[Sc Ac trans Ci fib]
+28.6 +24.8 80 +41 +48 опасность
перегрева
1009.4 1009.2 2
12 19.06 З 3 6000 м осадки на расстоянии 8/5 420 м
[Sc Ac trans Ci fib]
+28.0 +25.2 85 +41 +41 опасность
перегрева
1008.3 1008.1
00 20.06 штиль 0 7000 м 5/4 480 м
[Sc Ac trans Ci fib]
+27.0 +25.0 89 +39 +40 очень
душно
1010.2 1010.0 +24.0 2
03 20.06 Ю 3 7000 м 6/5 450 м
[Sc Ac trans Ci fib]
+38.0 +25.1 48 +51 +57 опасность
перегрева
1009.6 1009.4
06 20.06 З 3 6000 м осадки на расстоянии 6/5 420 м
[Sc Ac trans Ci fib]
+29.6 +25.6 79 +44 +51 опасность
перегрева
1008.7 1008.5
09 20.06 Ю 3 6000 м осадки на расстоянии {гроза} 8/5 400 м
[Sc Ac trans Ci fib]
+29.4 +25.0 77 +42 +43 опасность
перегрева
1008.2 1008.0 0.0
12 20.06 СЗ 3 6000 м осадки на расстоянии {гроза} 8/5 420 м
[Sc Ac trans Ci fib]
+26.0 +24.3 90 +36 +36 очень
душно
1007.3 1007.0 +30.2 6

 

Местоположение метеостанции Ранаи (Индонезия): широта 3.95 долгота 108.38 высота над уровнем моря 2 м.

В архиве по умолчанию представлена погода в Ранаи за последнюю неделю. Архивные данные за месяц целиком и за предыдущие месяцы, начиная с января 2011 года, Вы можете получить, выбрав интересующий диапазон дат из раскрывающегося списка и нажав кнопку "Ввод!".


*Определитесь, кто Вы:
робот инопланетянин человек

Внимание! Время в таблицах - всемирное. Для получения местного времени необходимо прибавить поправку, которая равна 7 ч.

Смотрите также архив погоды в соседних городах и на ближайших метеорологических станциях:

Погода в Таремпе (Индонезия) (251 км)
Погода в Парохе (Индонезия) (263 км)
Погода в Кучинге (Малайзия) (350 км)
Погода в Сибу (Малайзия) (423 км)
Погода в Понтианаке (Индонезия) (470 км)
Погода в Хуентране (Вьетнам) (515 км)
Погода в Бинталу (Малайзия) (523 км)
Погода в Мерсинге (Малайзия) (531 км)
Погода в Танджунгпинанге (Индонезия) (545 км)
Погода в Синтанге (Индонезия) (551 км)

Пояснения к столбцам:

Ветер - указаны скорость ветра в м/с - средняя за 10 мин, порывы в срок и между сроками (в фигурных скобках) и направление, откуда дует ветер: С - северный, СВ - северо-восточный, В - восточный, ЮВ - юго-восточный, Ю - южный, ЮЗ - юго-западный, З - западный, СЗ - северо-западный.
Видимость - горизонтальная дальность видимости в метрах или километрах. При видимости от 1 до 10 км при отсутствии осадков обычно наблюдается дымка, при ухудшении видимости до 1 км и менее - туман. В сухую погоду видимость может ухудшаться дымом, пылью или мглою.
Явления - указаны атмосферные явления, наблюдавшиеся в срок или в последний час перед сроком; фигурными скобками обозначены явления, наблюдавшиеся между сроками (за 1-3 часа до срока); квадратными скобками обозначены град или гололедные отложения с указанием их диаметра в мм.
Облачность - указаны через наклонную черту общая и нижняя облачность в баллах и высота нижней границы облаков в метрах; квадратными скобками обозначены формы облаков: Ci - перистые, Cs - перисто-слоистые, Cc - перисто-кучевые, Ac - высококучевые, As - высокослоистые, Sc - слоисто-кучевые, Ns - слоисто-дождевые, Cu - кучевые, Cb - кучево-дождевые. Подробнее классификацию облаков см. в Атласе облаков (PDF).
T - Температура воздуха - температура, измеренная на высоте 2 м над землей.
Td - Температура точки росы - температура, при понижении до которой содержащийся в воздухе водяной пар достигнет насыщения.
f - Относительная влажность воздуха - влажноcть воздуха, измеренная на высоте 2 м над землей.
Te - Эффективная температура - температура, которую ощущает одетый по сезону человек в тени. Характеристика душности погоды. При расчете учитывается влияние влажности воздуха и скорости ветра на теплоощущения человека.
Tes - Эффективная температура на солнце - температура, которую ощущает человек, с поправкой на солнечный нагрев. Характеристика знойности погоды. Зависит от высоты солнца над горизонтом, облачности и скорости ветра. Ночью, в пасмурную погоду, а также при ветре 12 м/с и более поправка равна нулю.
P - Атмосферное давление - приведенное к уровню моря атмосферное давление.
Po - Атмосферное давление - измеренное на уровне метеостанции атмосферное давление.
Tmin - Минимальная температура - минимум температуры воздуха на высоте 2 м над землей.
Tmax - Максимальная температура - максимум температуры воздуха на высоте 2 м над землей.
R - Количество осадков - Количество выпавших осадков за период времени, мм. При наведении курсора мыши на число - период времени, за который выпало указанное количество осадков.
R24 - Количество осадков - Количество выпавших осадков за 24 часа, мм.
S - Снежный покров - Высота снежного покрова, см. При наведении курсора мыши на число - состояние снежного покрова и степень покрытия местности в баллах.